Location: Foots Cray
(51.4000°N, 0.1167°E)
Time: 23:38:07
(UTC+00:00)

ARIANE 5 R/B - Pass Details

Date: 15 May 2026
Orbit: 614 x 648 km, 98.0° (Epoch: 14 September)

Event Time Altitude Azimuth Distance (km) Brightness Sun altitude
Exits shadow 22:52:41 35° 140° (SE) 1,028 3.2 -18.2°
Maximum altitude 22:54:23 65° 72° (ENE) 712 2.8 -18.3°
Drops below altitude 10° 22:58:49 10° 351° (N) 2,054 6.5 -18.4°
Sets 23:01:04 0° 348° (NNW) 2,971 7.8 -18.5°
